Date,TemperatureHighF,TemperatureAvgF,TemperatureLowF,DewpointHighF,DewpointAvgF,DewpointLowF,HumidityHigh,HumidityAvg,HumidityLow,PressureMaxIn,PressureMinIn,WindSpeedMaxMPH,WindSpeedAvgMPH,GustSpeedMaxMPH,PrecipitationSumIn
2013-1-1,79.3,71.7,64.3,65.0,62.2,59.0,92,73,58,30.18,30.03,10,2,14,0.00
2013-1-2,84.0,71.1,59.7,69.0,64.1,59.0,97,81,52,30.07,29.97,7,0,8,0.00
2013-1-3,83.1,71.0,65.2,70.0,65.1,-99.9,98,85,61,30.11,30.01,4,-12,9,0.03
2013-1-4,84.7,71.6,63.1,72.0,67.9,62.0,99,89,62,30.20,30.08,4,1,7,0.00
2013-1-5,76.9,68.8,63.0,71.0,67.1,62.0,97,94,80,30.23,30.14,4,0,5,0.24
2013-1-6,81.7,72.0,62.7,73.0,68.5,62.0,99,89,72,30.16,30.04,8,1,11,0.04
2013-1-7,77.2,70.5,66.3,70.0,68.2,66.0,98,92,76,30.14,30.05,3,0,9,0.04
2013-1-8,82.0,74.7,67.7,74.0,71.0,67.0,98,89,72,30.18,30.05,11,2,14,0.05
2013-1-9,81.6,76.9,73.4,73.0,71.4,70.0,94,83,73,30.26,30.14,12,4,18,0.05
2013-1-10,79.4,76.1,72.6,70.0,67.7,64.0,84,76,62,30.27,30.16,17,4,20,0.00
2013-1-11,80.2,75.2,68.9,71.0,68.5,66.0,91,80,70,30.23,30.14,9,3,14,0.00
2013-1-12,80.1,72.9,63.9,71.0,67.8,63.0,96,84,67,30.16,30.07,11,2,12,0.01
2013-1-13,80.1,73.8,63.4,69.0,66.3,62.0,97,78,61,30.11,30.05,17,2,18,0.00
2013-1-14,80.1,70.7,61.7,68.0,64.3,61.0,97,81,61,30.15,30.09,9,2,11,0.00
2013-1-15,77.2,71.1,63.2,71.0,66.9,62.0,98,87,73,30.12,30.03,7,1,11,0.01
2013-1-16,80.1,71.2,60.4,71.0,67.0,60.0,99,87,70,30.09,29.99,8,1,10,0.01
2013-1-17,81.3,70.5,59.6,72.0,66.4,55.0,99,87,69,30.08,29.95,14,2,16,0.10
2013-1-18,71.0,63.1,52.5,61.0,54.2,47.0,85,73,64,30.22,30.08,6,2,15,0.10
2013-1-19,70.8,67.3,63.1,68.0,64.0,59.0,97,89,69,30.20,30.08,2,0,6,0.05
2013-1-20,82.1,70.5,62.3,71.0,66.6,62.0,99,88,61,30.12,29.99,4,0,7,0.25
2013-1-21,80.5,71.1,63.6,72.0,67.8,63.0,99,89,73,30.05,29.94,2,0,8,0.01
2013-1-22,76.3,66.6,59.8,64.0,60.2,56.0,97,81,61,30.20,29.99,4,0,10,0.01
2013-1-23,73.9,65.3,56.9,60.0,56.4,54.0,92,74,52,30.28,30.18,7,1,11,0.00
2013-1-24,77.7,64.1,54.7,57.0,53.6,48.0,95,71,46,30.27,30.17,9,1,10,0.00
2013-1-25,76.3,64.1,52.8,60.0,55.9,51.0,96,77,51,30.27,30.16,5,0,8,0.00
2013-1-26,80.2,65.7,55.5,61.0,58.3,55.0,98,79,50,30.24,30.14,5,0,7,0.00
2013-1-27,78.1,68.6,58.2,64.0,61.0,57.0,98,78,57,30.27,30.18,7,1,11,0.00
2013-1-28,79.0,74.2,69.2,67.0,64.6,63.0,81,72,61,30.29,30.20,10,2,14,0.00
2013-1-29,80.6,73.6,64.8,70.0,67.4,63.0,96,81,66,30.21,30.10,9,2,16,0.00
2013-1-30,81.5,74.2,70.1,69.0,66.5,64.0,93,77,63,30.10,29.95,12,3,17,0.00
2013-1-31,71.4,65.7,57.1,71.0,60.0,44.0,98,82,56,30.16,29.93,5,1,14,0.01